FW3030 Weather Reports


time (UTC)temp
C
wind
direction
speed
KPH
gust
KPH
rain 1hr
cm
rain 24hr
cm
rain mn
cm
humidity
%
barometer
mb
20260510091558 5 0 0.0 3.2 0.00 0.00 0.00 62 1016.9
20260510084612 5 0 0.0 1.6 0.00 0.05 0.00 60 1016.6
20260510083059 5 0 0.0 3.2 0.00 0.05 0.00 59 1016.5
20260510081559 5 0 0.0 0.0 0.00 0.05 0.00 58 1016.3
20260510074559 6 0 0.0 1.6 0.00 0.05 0.00 58 1016.2
20260510073105 6 0 0.0 1.6 0.00 0.05 0.00 57 1016.1
20260510071556 6 254 0.0 4.8 0.00 0.05 0.00 57 1016.0
20260510070059 6 0 0.0 0.0 0.00 0.05 0.00 56 1015.9
20260510064558 6 238 0.0 1.6 0.00 0.05 0.00 56 1015.9
20260510063058 6 0 0.0 3.2 0.00 0.05 0.00 53 1015.8
20260510061600 6 0 0.0 1.6 0.00 0.05 0.00 52 1015.7
20260510060058 7 0 0.0 1.6 0.00 0.05 0.00 51 1015.7
20260510054558 7 0 0.0 1.6 0.00 0.05 0.00 50 1015.6
20260510053107 7 0 0.0 3.2 0.00 0.05 0.00 50 1015.7
20260510051601 7 242 0.0 3.2 0.00 0.05 0.00 50 1015.6
20260510050059 8 263 0.0 1.6 0.00 0.05 0.00 49 1015.6
20260510044600 8 0 0.0 1.6 0.00 0.05 0.05 48 1015.4
20260510043111 8 0 0.0 3.2 0.00 0.05 0.05 47 1015.4
20260510041558 8 0 0.0 1.6 0.00 0.05 0.05 45 1015.3
20260510040103 8 0 0.0 1.6 0.00 0.05 0.05 45 1015.2
20260510034601 8 273 0.0 3.2 0.00 0.05 0.05 45 1015.1
20260510033139 9 0 0.0 1.6 0.00 0.05 0.05 44 1015.0
20260510031622 9 0 0.0 1.6 0.00 0.05 0.05 43 1015.0
20260510030103 10 0 0.0 1.6 0.00 0.05 0.05 41 1014.8
20260510024557 10 0 0.0 3.2 0.00 0.05 0.05 40 1014.6
20260510023058 10 0 1.6 4.8 0.00 0.05 0.05 39 1014.5
20260510021601 11 0 0.0 8.0 0.00 0.05 0.05 38 1014.2
20260510020058 11 313 0.0 9.7 0.00 0.05 0.05 37 1013.8
20260510014559 11 272 1.6 11.3 0.00 0.05 0.05 36 1013.7
20260510013103 12 262 3.2 14.5 0.00 0.05 0.05 35 1013.3
20260510011601 12 12 3.2 24.1 0.00 0.05 0.05 35 1013.0
20260510010105 12 269 3.2 14.5 0.00 0.05 0.05 34 1012.9
20260510004600 12 269 6.4 17.7 0.00 0.05 0.05 33 1012.6
20260510003101 13 275 6.4 16.1 0.00 0.05 0.05 32 1012.4
20260510001600 13 304 4.8 19.3 0.00 0.05 0.05 33 1012.2
20260510000108 13 5 4.8 16.1 0.00 0.05 0.05 33 1012.0
20260509234603 14 283 8.0 29.0 0.00 0.05 0.05 31 1011.8
20260509233101 14 88 6.4 19.3 0.00 0.05 0.05 32 1011.7
20260509231559 15 316 9.7 27.4 0.00 0.05 0.05 30 1011.5
20260509230100 15 290 6.4 22.5 0.00 0.05 0.05 31 1011.3
20260509224600 15 279 4.8 16.1 0.00 0.05 0.05 31 1011.2
20260509223105 15 314 6.4 24.1 0.00 0.05 0.05 32 1011.3
20260509221600 15 269 6.4 20.9 0.00 0.05 0.05 31 1011.1
20260509214616 16 308 8.0 20.9 0.00 0.05 0.05 30 1011.0
20260509213056 16 294 6.4 17.7 0.00 0.05 0.05 31 1010.8
20260509211602 15 261 8.0 20.9 0.00 0.05 0.05 32 1010.9
20260509210108 16 352 8.0 19.3 0.00 0.05 0.05 31 1010.7
20260509204601 16 323 6.4 20.9 0.00 0.05 0.05 34 1010.7
20260509203059 16 286 9.7 22.5 0.00 0.05 0.05 30 1010.7
20260509201608 16 46 4.8 16.1 0.00 0.05 0.05 33 1010.6
20260509200109 16 360 8.0 22.5 0.00 0.05 0.05 34 1010.6
20260509194602 15 292 4.8 17.7 0.00 0.05 0.05 36 1010.4
20260509193101 15 318 8.0 19.3 0.00 0.05 0.05 34 1010.3
20260509191557 15 350 8.0 20.9 0.00 0.05 0.05 34 1010.4
20260509184606 15 304 4.8 19.3 0.00 0.05 0.05 37 1009.9
20260509183059 14 355 3.2 20.9 0.00 0.05 0.05 39 1009.8
20260509181621 14 344 9.7 19.3 0.00 0.05 0.05 35 1009.9
20260509180057 13 270 9.7 19.3 0.00 0.05 0.05 37 1009.8
20260509174559 13 329 9.7 20.9 0.00 0.05 0.05 37 1009.8
20260509173105 13 335 9.7 24.1 0.00 0.05 0.05 35 1009.7
20260509171558 13 300 8.0 22.5 0.00 0.05 0.05 36 1009.6
20260509170058 13 279 6.4 20.9 0.00 0.05 0.05 39 1009.6
20260509164559 13 11 6.4 22.5 0.00 0.05 0.05 40 1009.4
20260509163103 12 281 6.4 20.9 0.00 0.05 0.05 43 1009.2
20260509161600 12 349 6.4 19.3 0.00 0.05 0.05 44 1009.1
20260509160059 11 350 8.0 20.9 0.00 0.05 0.05 43 1008.9
20260509154600 11 49 9.7 22.5 0.00 0.05 0.05 49 1008.7
20260509153057 11 33 9.7 22.5 0.00 0.05 0.05 49 1008.6
20260509151605 10 302 6.4 19.3 0.00 0.05 0.05 52 1008.3
20260509150058 10 264 6.4 20.9 0.00 0.05 0.05 54 1008.1
20260509144610 10 26 6.4 17.7 0.00 0.05 0.05 57 1008.0
20260509143122 10 360 4.8 17.7 0.00 0.05 0.05 61 1007.8
20260509141557 9 300 6.4 16.1 0.00 0.05 0.05 63 1007.6
20260509140106 9 318 9.7 20.9 0.00 0.05 0.05 65 1007.5
20260509134613 8 286 3.2 17.7 0.00 0.05 0.05 71 1007.0
20260509133057 8 328 8.0 16.1 0.00 0.05 0.05 73 1007.0
20260509131558 8 10 3.2 19.3 0.00 0.05 0.05 77 1006.7
20260509130101 7 5 3.2 19.3 0.00 0.05 0.05 80 1006.5
20260509124557 7 355 4.8 12.9 0.00 0.05 0.05 85 1006.2
20260509123130 7 28 3.2 12.9 0.00 0.05 0.05 87 1006.0
20260509121612 7 321 1.6 11.3 0.00 0.05 0.05 89 1005.8
20260509120113 7 346 1.6 11.3 0.00 0.05 0.05 89 1005.4
20260509114603 7 319 1.6 9.7 0.00 0.05 0.05 89 1005.1
20260509113101 7 321 1.6 6.4 0.00 0.05 0.05 89 1004.8
20260509111605 7 306 1.6 9.7 0.00 0.05 0.05 89 1004.6
20260509110107 7 322 1.6 9.7 0.00 0.05 0.05 89 1004.3
20260509104558 7 289 3.2 11.3 0.00 0.05 0.05 88 1004.1
20260509103104 8 0 1.6 8.0 0.00 0.05 0.05 88 1003.9
20260509101624 8 318 0.0 4.8 0.00 0.05 0.05 87 1003.6
20260509100059 8 328 0.0 4.8 0.00 0.05 0.05 87 1003.4
20260509094603 8 0 0.0 3.2 0.03 0.05 0.05 86 1003.3
20260509093106 8 0 0.0 1.6 0.03 0.05 0.05 85 1003.2